Location: Fosso di Mazzangrugno
(43.5500°N, 13.3333°E)
Time: 08:20:01
(UTC+00:00)

Daily predictions for brighter satellites

Satellite Brightness Start Highest point End
(mag) Time Altitude Azimuth Time Altitude Azimuth Time Altitude Azimuth
H-2A R/B 3.4 19:08:03 10° SSW 19:12:47 40° W 19:17:40 10° NNW
SL-08 RB Rocket 4.3 19:10:11 10° S 19:14:43 60° W 19:19:14 10° NNW
STARLINK-1110 4.0 19:11:09 10° NW 19:15:16 61° NNE 19:19:22 10° ESE
ERBS 4.3 19:12:34 10° WSW 19:15:36 34° NW 19:18:40 10° NNE
Abrixas rocket 3.4 19:13:24 10° WNW 19:16:09 34° N 19:18:54 10° ENE
Aureole 1 Rocket 4.1 19:11:58 10° NNW 19:16:34 60° WSW 19:22:38 10° S
STARLINK-1143 3.9 19:14:12 10° WSW 19:18:20 74° NNW 19:22:29 10° NE
CZ-2C R/B 3.7 19:14:17 10° NNE 19:18:48 83° ESE 19:23:22 10° SSW
Resurs 1-3 3.6 19:16:33 10° SSE 19:20:56 82° ENE 19:25:21 10° N
STARLINK-1124 3.8 19:17:19 10° NW 19:21:27 67° NNE 19:25:34 10° ESE
MetOp-A 4.3 19:16:11 10° SSE 19:21:33 81° WSW 19:26:57 10° NNW
Cosmos 676 Rocket 4.1 19:16:19 10° NNW 19:21:37 85° WSW 19:26:54 10° SSE
Cosmos 1634 Rocket 4.1 19:16:10 10° N 19:22:32 77° E 19:28:52 10° SSE
STARLINK-1241 4.0 19:19:14 10° WSW 19:23:21 68° NNW 19:27:29 10° NE
STARLINK-1122 3.8 19:22:16 10° NW 19:26:25 72° NNE 19:30:34 10° ESE
Cosmos 1300 Rocket 3.9 19:23:31 10° N 19:27:51 50° ENE 19:32:09 10° SSE
STARLINK-1239 4.2 19:24:13 10° WSW 19:28:19 63° NNW 19:32:27 10° NE
NOSS 8 (E) 4.4 19:25:13 10° SSW 19:28:32 51° ESE 19:31:30 10° NE
Aureole 2 Rocket 3.4 19:28:37 10° SSE 19:31:09 22° ESE 19:33:36 10° NE
STARLINK-1126 3.7 19:27:17 10° NW 19:31:28 78° NE 19:35:27 11° ESE
NOSS 2-2 (D) 4.4 19:28:52 10° SSE 19:31:30 20° ESE 19:34:14 10° ENE
Cosmos 1437 Rocket 3.5 19:29:40 10° SSE 19:33:04 33° E 19:36:32 10° NNE
Meteor 1-4 Rocket 3.5 19:29:45 10° SSW 19:33:05 47° WNW 19:36:28 10° N
STARLINK-1240 4.3 19:29:13 10° WSW 19:33:18 59° NNW 19:37:24 10° NE
Cosmos 304 Rocket 4.4 19:31:50 10° SSE 19:36:11 36° ESE 19:40:33 10° NE
STARLINK-1082 3.6 19:32:13 10° NW 19:36:23 84° NE 19:40:10 12° ESE
USA 186 4.4 19:35:29 10° WSW 19:36:37 12° W 19:37:47 10° WNW
STARLINK-1203 4.5 19:33:50 10° WSW 19:37:58 55° NNW 19:42:06 10° NE
STARLINK-1216 4.5 19:34:13 10° WSW 19:38:17 55° NNW 19:42:22 10° NE
Lacrosse 5 1.9 19:33:13 10° NW 19:38:18 79° SW 19:42:55 12° SE
STARLINK-1100 3.6 19:37:11 10° NW 19:41:21 89° SW 19:44:56 14° SE
ISS -3.7 19:38:01 10° WNW 19:41:23 70° SW 19:44:06 15° SE
COSMOS 2406 4.3 19:37:24 10° NW 19:42:48 42° WSW 19:48:09 10° S
Cosmos 1975 4.2 19:39:28 10° NNW 19:43:13 38° W 19:46:55 10° SSW
CZ-2C R/B 3.3 19:38:20 10° N 19:43:54 65° WNW 19:49:26 10° SSW
STARLINK-1083 3.6 19:42:11 10° NW 19:46:21 83° SW 19:49:44 15° SE
Cosmos 1674 Rocket 4.0 19:42:25 10° SSE 19:46:32 43° E 19:50:43 10° NNE
Meteor 2-4 Rocket 3.8 19:41:17 10° SSW 19:46:38 74° WNW 19:52:00 10° N
NOSS 2-2 (E) 3.6 19:45:19 10° S 19:48:38 38° ESE 19:52:13 10° NE
Cosmos 1378 Rocket 4.3 19:45:49 12° SSE 19:49:30 35° E 19:53:29 10° NNE
EXPRESS MD2 2.9 19:47:11 10° SW 19:49:56 70° SE 19:54:54 10° ENE
STARLINK-1125 3.6 19:47:11 10° WNW 19:51:20 76° SW 19:54:31 16° SE
Cosmos 2297 3.9 19:47:50 10° S 19:53:20 53° ESE 19:58:53 10° NNE
Cosmos 1943 Rocket 3.3 19:50:21 13° SSE 19:53:54 24° ESE 19:58:15 10° NE
Cosmos 1833 Rocket 3.3 19:48:53 10° NW 19:54:20 53° WSW 19:59:46 10° S
STARLINK-1109 3.7 19:52:10 10° WNW 19:56:18 70° SW 19:59:18 18° SE
IGS 5A 3.8 19:55:29 16° SE 19:58:37 52° ENE 20:02:40 10° N
Cosmos 1452 Rocket 3.9 19:54:45 10° SSW 20:00:00 70° WNW 20:05:18 10° NNE
Cosmos 332 Rocket 3.9 19:55:22 10° SSW 20:00:17 85° WNW 20:05:13 10° NNE
BREEZE-M DEB 2.5 19:58:44 10° SSW 20:00:50 39° SE 20:04:29 10° ENE
Cosmos 2082 Rocket 2.3 19:55:21 10° NNW 20:01:05 77° WSW 20:06:02 14° SSE
STARLINK-1091 3.8 19:57:08 10° WNW 20:01:14 64° SW 20:04:04 19° SE
Landsat 7 4.0 19:57:48 15° SSE 20:01:36 59° ENE 20:06:17 10° N
Intercosmos 24 3.8 20:00:07 10° NNW 20:03:40 74° W 20:07:17 12° S
Meteor 1-23 Rocket 4.4 19:59:08 10° S 20:04:41 56° E 20:10:12 10° NNE
STARLINK-1072 3.9 20:02:09 10° WNW 20:06:14 58° SW 20:08:52 20° SSE
Cosmos 1461 3.0 20:02:46 10° SW 20:06:53 79° NW 20:11:15 10° NNE
Cosmos 2369 Rocket 3.4 20:07:22 18° SE 20:09:48 23° ESE 20:14:10 10° NE
STARLINK-1096 4.0 20:07:09 10° WNW 20:11:11 53° SW 20:13:39 22° SSE
SAR-Lupe-2 3.5 20:08:29 10° NNE 20:12:06 73° ESE 20:15:10 14° S
NOSS 2-2 (C) 3.1 20:09:42 10° SSW 20:13:10 56° ESE 20:16:55 10° NE
STARLINK-1104 4.4 20:09:26 10° NW 20:13:27 46° NNE 20:16:40 15° E
STARLINK-1079 4.1 20:12:09 10° WNW 20:16:09 48° SW 20:18:26 23° SSE
ATLAS 2AS CENTAUR R/B 4.1 20:13:12 17° SE 20:16:47 24° ESE 20:22:45 10° ENE
SPOT 5 3.6 20:14:18 19° SE 20:17:42 46° ENE 20:22:48 10° N
STARLINK-1144 4.3 20:14:24 10° NW 20:18:27 49° NNE 20:21:28 17° E
SL-4 R/B 3.7 20:16:47 10° WNW 20:18:35 15° WSW 20:20:17 10° SSW
STARLINK-1116 4.2 20:17:09 10° WNW 20:21:07 44° SW 20:23:13 24° SSE
ERS-1 Rocket 3.2 20:19:40 21° SE 20:22:53 58° ENE 20:27:50 10° N
STARLINK-1103 4.2 20:19:22 10° NW 20:23:26 53° NNE 20:26:13 19° E
Okean 2 4.3 20:25:56 26° SE 20:27:21 33° E 20:31:05 10° NNE
Cosmos 1066 Rocket 4.0 20:22:28 10° S 20:27:47 85° E 20:33:10 10° NNE
STARLINK-1101 4.1 20:24:20 10° NW 20:28:25 56° NNE 20:31:00 21° ESE
USA 245 3.1 20:27:55 24° SSW 20:29:27 50° WSW 20:32:02 10° NNW
Resurs 01 Rocket 3.5 20:29:17 10° SSW 20:33:01 26° W 20:36:45 10° NW
USA 238 DEB 4.2 20:25:59 10° NNW 20:33:04 57° NE 20:38:26 19° ESE
USA 238 4.2 20:26:05 10° NNW 20:33:10 56° NE 20:38:33 19° ESE
STARLINK-1102 4.0 20:29:18 10° NW 20:33:25 61° NNE 20:35:47 24° ESE
Nadezhda 4 Rocket 3.9 20:28:28 12° S 20:34:10 85° E 20:40:19 10° N
Okean 1 Rocket 3.0 20:30:51 10° N 20:35:21 86° WSW 20:37:54 25° S
Cosmos 1805 3.4 20:31:44 10° N 20:35:36 56° E 20:37:07 33° SE
GPS 2-04 Rocket1 4.0 20:33:44 10° WSW 20:35:57 20° SSW 20:35:57 20° SSW
STARLINK-1111 3.8 20:34:16 10° NW 20:38:24 65° NNE 20:40:34 26° ESE
BREEZE-M DEB (TANK) 4.4 20:29:55 10° SSW 20:38:39 24° SSE 20:39:13 24° SE
Cosmos 1455 Rocket 4.1 20:37:03 10° NNE 20:40:54 30° ENE 20:42:18 25° ESE
STARLINK-1073 3.7 20:39:15 10° NW 20:43:23 70° NNE 20:45:21 30° ESE
SL-8 R/B 3.7 20:38:35 10° WNW 20:43:24 81° NNE 20:46:16 24° ESE
Terra 2.0 20:44:21 30° SE 20:46:34 59° ENE 20:51:16 10° N
Cosmos 1110 Rocket 4.3 20:41:47 10° SSW 20:46:56 68° WNW 20:52:07 10° NNE
SL-4 R/B 2.6 20:42:40 10° SSW 20:47:10 45° SE 20:51:47 10° ENE
Spot 2 Rocket 4.4 20:44:03 15° SSW 20:47:52 43° W 20:52:41 10° NNW
ATLAS 3B CENTAUR R/B 3.8 20:37:32 10° WSW 20:48:21 29° S 20:50:57 24° SSE
STARLINK-1121 3.6 20:44:13 10° NW 20:48:22 76° NNE 20:50:08 33° ESE
SPOT 1/Viking Rocket 3.9 20:45:17 21° S 20:48:41 61° W 20:53:48 10° NNW
Cosmos 1842 3.7 20:48:52 37° SE 20:49:38 42° E 20:53:20 10° NNE
CARTOSAT-1 3.5 20:47:49 31° S 20:49:51 82° WSW 20:54:12 10° NNW
Abrixas rocket 1.8 20:48:52 10° WNW 20:51:48 66° SSW 20:51:50 66° SSW
STARLINK-1106 3.6 20:49:13 10° NW 20:53:22 82° NE 20:54:56 37° ESE
STARLINK-1112 3.5 20:54:10 10° NW 20:58:19 88° NNE 20:59:42 41° SE
STARLINK-1128 3.5 20:59:08 10° NW 21:03:17 85° SW 21:04:28 46° SE
SWAS 4.4 21:01:09 10° NNW 21:05:29 75° ENE 21:06:45 45° SE
STARLINK-1113 3.5 21:04:08 10° WNW 21:08:16 79° SW 21:09:16 51° SE
Cosmos 1733 3.1 21:04:53 10° N 21:08:43 87° WSW 21:09:32 53° S
Meteor 1-21 4.4 21:07:50 34° SSE 21:10:05 57° E 21:15:34 10° NNE
COSMOS 2455 3.9 21:09:44 26° ESE 21:10:12 26° ESE 21:15:02 10° NE
Cosmos 1378 4.2 21:09:41 22° SW 21:11:40 41° WNW 21:15:12 10° N
STARLINK-1119 3.5 21:09:08 10° WNW 21:13:16 72° SW 21:14:04 55° SSE
Cosmos 1302 Rocket 4.0 21:10:14 21° SSW 21:13:48 83° WNW 21:19:08 10° NNE
Cosmos 1271 Rocket 3.5 21:14:22 36° E 21:14:22 36° E 21:17:58 10° NNE
Cosmos 1242 Rocket 2.7 21:15:26 55° ESE 21:15:32 55° E 21:19:08 10° NNE
JB-3 4.5 21:11:54 10° NNE 21:16:01 59° E 21:16:37 52° SE
Cosmos 1486 Rocket 4.2 21:11:03 10° NNW 21:16:19 63° ENE 21:18:13 38° SE
Cosmos 1544 Rocket 3.8 21:13:31 10° N 21:17:47 54° E 21:18:39 45° ESE
STARLINK-1114 3.6 21:14:06 10° WNW 21:18:13 66° SW 21:18:49 57° S
MTI 3.7 21:15:42 10° N 21:18:51 74° WNW 21:18:58 72° WSW
STARLINK-60 3.6 21:20:11 44° NE 21:20:11 44° NE 21:22:29 10° NE
Cosmos 1092 Rocket 4.2 21:15:30 21° SSW 21:19:44 69° W 21:25:53 10° N
Lacrosse 5 4.0 21:18:10 10° W 21:20:30 13° WSW 21:22:07 12° SW
STARLINK-1130 (DARKSAT) 3.6 21:19:06 10° WNW 21:23:12 60° SW 21:23:37 57° S
Cosmos 1707 3.5 21:24:35 37° E 21:24:35 37° E 21:28:03 10° NNE
CENTAUR R/B 3.3 21:17:45 10° NNW 21:25:48 70° NE 21:31:08 27° SE
STARLINK-1084 3.7 21:24:06 10° WNW 21:28:10 55° SW 21:28:24 54° SSW
ATLAS 3B R/B 3.8 21:22:30 10° NNW 21:28:46 38° NE 21:33:56 15° ESE
SL-27 R/B 2.3 21:25:49 10° NNW 21:29:24 78° WSW 21:29:28 78° SW
NOSS 3-2 (C) 4.1 21:23:24 10° NW 21:31:01 80° NE 21:35:37 31° SE
ALOS 2 4.4 21:30:24 18° E 21:31:33 20° ENE 21:34:46 10° NNE
Cosmos 1726 3.7 21:29:44 10° NNE 21:32:50 24° ENE 21:32:50 24° ENE
STARLINK-1098 3.9 21:29:06 10° WNW 21:33:07 50° SW 21:33:10 50° SW
Cosmos 1867 4.2 21:30:28 10° NNW 21:35:45 47° NE 21:38:06 29° ESE
COSMOS 2487 4.3 21:34:12 10° N 21:36:55 21° ENE 21:37:03 21° ENE
Cosmos 1943 Rocket 2.9 21:31:52 10° SW 21:37:15 51° WNW 21:42:44 10° NNE
Cosmos 1992 Rocket 4.0 21:36:08 48° SSE 21:37:21 63° ESE 21:42:30 10° NNE
STARLINK-1123 4.1 21:34:06 10° WNW 21:37:56 46° SW 21:37:56 46° SW
NOSS 3-4 (A) 3.3 21:36:32 37° S 21:38:47 63° ESE 21:44:58 10° NE
NOSS 3-4 (C) 3.3 21:36:40 38° S 21:38:54 62° ESE 21:45:04 10° NE
STARLINK-1097 4.3 21:39:08 10° WNW 21:42:45 41° SW 21:42:45 41° SW
SeaSat 1 2.5 21:39:06 10° NE 21:43:57 55° ESE 21:44:35 51° SE
EO 1 Del DPAF 3.3 21:40:57 10° NNE 21:44:29 61° E 21:44:29 61° E
Cosmos 1975 Rocket 4.3 21:44:36 23° SW 21:46:40 37° WNW 21:50:47 10° N
STARLINK-1099 4.5 21:44:09 10° WNW 21:47:31 37° WSW 21:47:31 37° WSW
Cosmos 292 Rocket 4.2 21:48:20 32° SW 21:50:25 61° WNW 21:55:15 10° NNE
STARLINK-1212 4.4 21:47:48 10° NW 21:50:40 33° NNE 21:50:47 33° NNE
STARLINK-1105 4.4 21:48:16 10° NW 21:51:08 33° NNE 21:51:13 33° NNE
BREEZE-M DEB (TANK) 4.1 21:39:00 10° W 21:51:55 58° NNW 21:55:32 10° ENE
STARLINK-1247 4.3 21:49:08 10° NW 21:52:02 33° NNE 21:52:06 33° NNE
RESURS DK-1 4.4 21:53:56 17° ENE 21:53:56 17° ENE 21:55:33 10° ENE
STARLINK-1227 4.3 21:49:38 10° NW 21:52:31 33° NNE 21:52:32 33° NNE
Meteor 2-10 4.1 21:47:42 10° N 21:52:43 61° ENE 21:53:43 50° SE
BREEZE-M DEB (TANK) 4.1 21:49:52 10° WNW 21:53:21 41° NNE 21:57:19 10° E
STARLINK-1226 4.3 21:50:29 10° NW 21:53:23 34° NNE 21:53:24 34° NNE
Cosmos 2369 Rocket 2.8 21:49:04 16° SW 21:53:26 54° WNW 21:58:58 10° NNE
STARLINK-1215 4.3 21:51:22 10° NW 21:54:17 35° NNE 21:54:17 35° NNE
STARLINK-1217 4.3 21:53:11 10° NW 21:56:00 35° NNE 21:56:00 35° NNE
S3M 3.9 21:49:57 10° N 21:56:10 76° E 21:58:11 45° SSE
STARLINK-1229 4.3 21:54:06 10° NW 21:56:54 36° NNE 21:56:54 36° NNE
STARLINK-1270 4.3 21:54:58 10° NW 21:57:45 36° NNE 21:57:45 36° NNE
ATLAS CENTAUR R/B 1.4 21:59:35 69° ESE 21:59:35 69° ESE 22:03:34 10° NE
STARLINK-1189 4.3 21:56:46 10° NW 21:59:29 37° NNE 21:59:29 37° NNE
STARLINK-1188 4.3 21:57:40 10° NW 22:00:22 37° NNE 22:00:22 37° NNE
STARLINK-1187 4.2 21:58:45 10° NW 22:01:14 39° N 22:01:14 39° N
Cosmos 1340 Rocket 3.2 21:58:31 10° N 22:02:31 53° ENE 22:02:31 53° ENE
STARLINK-1191 4.3 22:00:07 10° NW 22:02:39 37° N 22:02:39 37° N
Cosmos 1025 Rocket 3.0 22:02:58 64° SW 22:03:27 72° W 22:07:45 10° N
STARLINK-1221 4.3 22:01:03 10° NW 22:03:34 37° N 22:03:34 37° N
STARLINK-1222 4.3 22:01:54 10° NW 22:04:23 37° N 22:04:23 37° N
Meteor 2-19 Rocket 4.5 22:03:37 47° SSE 22:05:19 66° E 22:11:23 10° NNE
Thor Agena Rocket 3.6 22:00:15 10° NNE 22:05:34 77° WNW 22:07:12 45° SSW
STARLINK-1214 4.3 22:02:48 10° NW 22:05:15 37° N 22:05:15 37° N
Cosmos 1656 Rocket 3.7 22:04:50 40° SSW 22:06:58 80° WNW 22:12:34 10° NNE
ATLAS 2AS CENTAUR R/B 3.0 22:00:30 17° SW 22:06:58 85° NW 22:14:59 10° NE
BREEZE M DEB (TANK) 4.3 22:06:09 10° WNW 22:08:25 22° N 22:08:33 22° N
Cosmos 1553 Rocket 4.2 22:03:24 10° NNW 22:09:36 64° W 22:11:43 41° SSW
Cosmos 1953 2.2 22:06:50 10° N 22:10:41 79° NE 22:10:41 79° NE
BREEZE-M DEB (TANK) 3.4 22:00:26 10° WNW 22:11:05 84° SSW 22:11:56 59° SE
STARLINK-1228 3.8 22:08:12 10° NW 22:11:08 54° NNW 22:11:08 54° NNW
Cosmos 1470 3.6 22:08:12 10° NNW 22:11:49 38° W 22:11:51 38° W
Cosmos 2292 Rocket 3.7 22:13:23 49° NE 22:13:23 49° NE 22:15:59 10° NNE
STARLINK-1235 4.3 22:10:54 10° NW 22:13:12 40° NNW 22:13:12 40° NNW
FALCON 9 R/B 4.5 22:19:35 16° ESE 22:19:35 16° ESE 22:22:05 10° E
Cosmos 968 Rocket 3.8 22:11:48 10° NNW 22:16:45 49° WSW 22:17:31 45° SW
Cosmos 1655 Rocket 4.0 22:15:01 43° SSW 22:17:14 77° W 22:23:31 10° N
SL-4 R/B 4.3 22:20:18 12° N 22:20:18 12° N 22:20:29 10° N
ATLAS 5 CENTAUR R/B 2.2 22:21:46 50° WNW 22:22:07 53° NW 22:24:28 10° NNE
Terra 3.9 22:23:15 14° WSW 22:24:41 16° W 22:27:32 10° NW
Cosmos 1758 4.5 22:21:39 10° NNW 22:25:18 33° W 22:25:25 33° W
SL-4 R/B 3.2 22:22:14 10° W 22:26:56 51° NNW 22:31:40 10° NE
Cosmos 2228 3.5 22:24:29 10° N 22:28:36 48° ENE 22:28:37 48° E
Cosmos 1726 Rocket 4.3 22:25:16 10° N 22:29:21 40° ENE 22:29:30 40° E
Meteor 2-15 4.4 22:23:20 10° N 22:29:30 84° E 22:31:06 53° SSE
In-Cosmos 22 4.0 22:30:05 57° SSW 22:31:08 79° W 22:36:27 10° N
Cosmos 921 Rocket 4.4 22:31:52 27° E 22:31:52 27° E 22:34:55 10° NE
Meteor 1-24 Rocket 4.4 22:33:05 34° ESE 22:33:44 35° E 22:38:38 10° NNE
Cosmos 2266 Rocket 3.9 22:33:43 48° SSW 22:35:31 76° W 22:41:35 10° N
CZ-4C R/B 4.3 22:36:20 10° E 22:36:20 10° E 22:36:50 10° E
Cosmos 1503 Rocket 4.5 22:31:50 10° NNW 22:36:55 47° WSW 22:37:35 44° SW
SJ 16-02 3.9 22:42:20 10° NNE 22:44:47 14° NE 22:47:11 10° E
Cosmos 1674 3.1 22:48:20 60° NNW 22:48:20 60° NNW 22:51:34 10° N
Meteor 2-15 Rocket 4.4 22:43:15 10° N 22:49:26 86° W 22:50:55 55° S
Helios 1B rocket 4.0 22:47:12 10° NE 22:50:09 25° E 22:50:09 25° E
COSMOS 2455 3.3 22:52:50 30° WSW 22:55:43 56° NW 23:01:41 10° NNE
USA 215 3.3 22:52:57 26° ESE 22:56:55 80° NE 23:03:29 10° NW
STARLINK-1206 4.4 22:53:19 10° NW 22:57:22 50° NNE 22:58:21 40° ENE
Cosmos 2219 4.2 22:54:17 10° NNW 22:59:37 40° ENE 23:02:18 25° ESE
Helios 1A 2.9 23:01:35 81° NNW 23:01:35 81° NNW 23:05:37 10° NNW
STARLINK-1205 4.2 22:58:16 10° NW 23:02:21 54° NNE 23:03:07 46° ENE
Cosmos 2297 Rocket 3.4 22:58:40 10° N 23:03:52 36° NE 23:07:00 20° ESE
Lacrosse 4 Rocket 4.3 23:04:59 10° NNE 23:07:08 13° NE 23:09:15 10° ENE
STARLINK-1368 4.3 23:08:27 43° NE 23:08:27 43° NE 23:11:07 10° NE
STARLINK-1218 4.1 23:03:15 10° NW 23:07:21 58° NNE 23:07:55 52° ENE
ALOS 2 3.3 23:07:47 41° W 23:07:47 41° W 23:11:46 10° NNW
Cosmos 1726 4.1 23:05:03 10° NW 23:07:20 20° WNW 23:07:20 20° WNW
PSLV R/B 4.4 23:03:48 10° NNE 23:07:54 40° E 23:07:54 40° E
STARLINK-1369 4.2 23:11:47 47° NE 23:11:47 47° NE 23:14:35 10° NE
Timation 2 Rocket 3.8 23:05:05 10° NNW 23:11:23 86° WSW 23:12:55 54° SSE
Cosmos 2058 Rocket 3.0 23:07:26 10° N 23:11:54 75° E 23:11:58 75° E
STARLINK-1254 4.0 23:08:13 10° NW 23:12:20 62° NNE 23:12:41 59° ENE
STARLINK-1372 4.1 23:15:08 51° NE 23:15:08 51° NE 23:18:05 10° NE
Meteor 2-5 Rocket 3.7 23:14:12 57° SW 23:15:18 75° WNW 23:20:56 10° N
CENTAUR R/B 4.0 23:09:02 10° NW 23:16:17 34° WSW 23:18:17 31° SW
STARLINK-1231 3.8 23:13:11 10° NW 23:17:19 67° NNE 23:17:27 66° NE
STARLINK-1378 4.0 23:18:28 54° NNE 23:18:28 54° NNE 23:21:34 10° NE
SL-14 R/B 3.5 23:19:11 64° NNE 23:19:11 64° NNE 23:22:30 10° N
ATLAS 3B R/B 2.9 23:13:04 10° NW 23:19:42 55° WSW 23:21:10 47° SSW
SeaSat 1 4.3 23:17:13 10° N 23:21:09 24° NW 23:24:20 13° W
STARLINK-1379 3.9 23:21:51 56° NNE 23:21:51 56° NNE 23:25:05 10° NE
Cosmos 1606 Rocket 4.3 23:17:45 10° NNW 23:21:36 41° W 23:21:36 41° W
STARLINK-1232 3.7 23:18:10 10° NW 23:22:15 72° NNE 23:22:15 72° NNE
Meteor 2-21 4.4 23:20:59 53° SSW 23:22:34 80° W 23:28:48 10° N
STARLINK-1329 3.9 23:23:14 58° N 23:23:14 58° N 23:26:33 10° NE
SL-16 R/B 4.5 23:20:14 10° ESE 23:24:51 23° ENE 23:29:29 10° N
STARLINK-1362 3.9 23:26:40 58° N 23:26:40 58° N 23:30:07 10° NE
STARLINK-1208 3.7 23:23:07 10° NW 23:27:00 73° N 23:27:00 73° N
Cosmos 1656 4.0 23:27:53 45° SE 23:28:39 48° ESE 23:34:03 10° NE
ATLAS CENTAUR R/B 3.1 23:27:14 10° NNW 23:29:34 31° NE 23:33:52 10° ESE
STARLINK-1373 3.9 23:30:05 57° NNW 23:30:05 57° NNW 23:33:42 10° NE
RESURS DK-1 3.4 23:29:48 36° WNW 23:30:17 38° WNW 23:34:10 10° NNE
STARLINK-1365 3.9 23:31:12 56° NNW 23:31:12 56° NNW 23:34:57 10° NE
STARLINK-1271 3.8 23:28:08 10° NW 23:31:49 69° NW 23:31:49 69° NW
STARLINK-1390 4.0 23:33:35 55° NNW 23:33:35 55° NNW 23:37:18 10° NE
Cosmos 1697 Rocket 3.8 23:32:47 28° ESE 23:33:42 29° ESE 23:38:31 10° NE
Cosmos 2084 4.4 23:33:36 38° W 23:34:37 45° NW 23:38:56 10° NNE
Cosmos 1626 2.8 23:36:00 49° NW 23:36:00 49° NW 23:39:08 10° N
BREEZE-M R/B 3.4 23:31:45 20° WSW 23:36:43 82° NNW 23:40:26 10° ENE
STARLINK-1154 3.9 23:33:06 10° NW 23:36:35 61° NW 23:36:35 61° NW
Okean 1-7 Rocket 3.9 23:37:39 53° W 23:37:52 53° W 23:42:20 10° N
Cosmos 1812 Rocket 4.5 23:33:53 10° N 23:38:07 40° ENE 23:38:55 37° ESE
ATLAS CENTAUR R/B 3.9 23:35:47 10° W 23:38:41 17° NW 23:41:29 10° N
Cosmos 2227 Rocket 2.6 23:35:18 10° NNW 23:40:56 58° ENE 23:43:30 31° SE
STARLINK-1197 4.0 23:38:04 10° NW 23:41:21 54° WNW 23:41:21 54° WNW
CZ-4 R/B 3.7 23:38:34 10° N 23:43:20 78° WNW 23:43:50 69° SW
STARLINK-1198 4.2 23:43:02 10° WNW 23:46:07 48° WNW 23:46:07 48° WNW
Cosmos 1602 Rocket 3.6 23:47:23 61° ESE 23:47:32 62° E 23:51:49 10° NNE
SL-08 ROCKET BODY 4.3 23:46:46 52° S 23:48:16 79° E 23:54:08 10° N
STARLINK-1199 4.4 23:48:03 10° WNW 23:50:55 42° WNW 23:50:55 42° WNW
